Orange, MA

12:44 PM EDT on March 23, 2017 (GMT -0400)
Orange Municipal

Weather History for KORE - May, 2014

Change the Weather History Date:

Wednesday, May 7, 2014

  Actual Average Record
Temperature  
Mean Temperature 48 °F -  
Max Temperature 68 °F 64 °F 90 °F (2000)
Min Temperature 30 °F 39 °F 26 °F (2001)
Degree Days  
Heating Degree Days 17    
Moisture  
Dew Point 27 °F    
Average Humidity 49    
Maximum Humidity 92    
Minimum Humidity 17    
Precipitation  
Precipitation 0.00 in - - ()
Sea Level Pressure  
Sea Level Pressure 30.16 in    
Wind  
Wind Speed 4 mph (West)    
Max Wind Speed 13 mph    
Max Gust Speed 21 mph    
Visibility 10 miles    
Events Rain    
Averages and records for this station are not official NWS values.
T = Trace of Precipitation, MM = Missing Value Source: NWS Daily Summary

Daily Weather History Graph

Daily Weather History Graph

Search for Another Location

Airport or City:

Trip Planner

Search our weather history database for the weather conditions in past years. The results will help you decide how hot, cold, wet, or windy it might be!

Date:

Astronomy

May. 07, 2014 Rise Set
Actual Time 5:36 AM EDT 7:55 PM EDT
Civil Twilight 5:04 AM EDT 8:27 PM EDT
Nautical Twilight 4:25 AM EDT 9:06 PM EDT
Astronomical Twilight 3:42 AM EDT 9:49 PM EDT
Moon 12:49 PM EDT (5/7) 1:43 AM EDT (5/7)
Length of Visible Light 15h 22m
Length of Day
14h 19m
First Quarter, 55% of the Moon is Illuminated
May 7
First Quarter
May 14
Full
May 21
Last Quarter
May 28
New
Jun 5
First Quarter

Hourly Weather History & Observations

Time (EDT) Temp. Windchill Dew Point Humidity Pressure Visibility Wind Dir Wind Speed Gust Speed Precip Events Conditions
12:52 AM 34.0 °F 31.0 °F 28.9 °F 82% 30.09 in 10.0 mi ESE 3.5 mph - N/A   Clear
1:52 AM 32.0 °F 27.5 °F 28.9 °F 88% 30.10 in 10.0 mi NNW 4.6 mph - N/A   Clear
2:52 AM 30.9 °F 27.5 °F 28.9 °F 92% 30.11 in 10.0 mi South 3.5 mph - N/A   Clear
3:52 AM 30.0 °F 26.5 °F 27.0 °F 88% 30.13 in 10.0 mi South 3.5 mph - N/A   Clear
5:52 AM 30.0 °F - 27.0 °F 88% 30.16 in 9.0 mi Calm Calm - N/A   Clear
8:52 AM 51.1 °F - 28.9 °F 43% 30.20 in 10.0 mi Calm Calm - N/A   Clear
9:52 AM 55.0 °F - 26.1 °F 33% 30.20 in 10.0 mi NW 10.4 mph - 0.00 in   Clear
10:52 AM 57.9 °F - 25.0 °F 28% 30.22 in 10.0 mi NW 12.7 mph 20.7 mph 0.00 in Rain Light Rain
11:52 AM 61.0 °F - 27.0 °F 27% 30.19 in 10.0 mi WSW 9.2 mph 18.4 mph 0.00 in   Clear
12:52 PM 62.1 °F - 26.1 °F 25% 30.17 in 10.0 mi Variable 5.8 mph - N/A   Clear
1:52 PM 64.0 °F - 25.0 °F 23% 30.17 in 10.0 mi West 8.1 mph 18.4 mph N/A   Clear
2:52 PM 66.9 °F - 21.9 °F 18% 30.15 in 10.0 mi North - - N/A   Clear
3:52 PM 66.0 °F - 19.9 °F 17% 30.14 in 10.0 mi Calm Calm - N/A   Clear
4:52 PM 66.0 °F - 21.9 °F 19% 30.14 in 10.0 mi WNW 5.8 mph - N/A   Clear
6:52 PM 64.9 °F - 19.9 °F 18% 30.14 in 10.0 mi West 5.8 mph - N/A   Clear
7:52 PM 57.9 °F - 26.1 °F 30% 30.16 in 10.0 mi West 4.6 mph - N/A   Clear
8:52 PM 51.1 °F - 28.9 °F 43% 30.18 in 10.0 mi Calm Calm - N/A   Clear
9:52 PM 46.9 °F - 33.1 °F 59% 30.19 in 10.0 mi Calm Calm - N/A   Clear
10:52 PM 42.1 °F - 34.0 °F 73% 30.19 in 10.0 mi Calm Calm - N/A   Clear
11:52 PM 39.0 °F - 33.1 °F 79% 30.19 in 10.0 mi Calm Calm - N/A   Clear